Regional Weather Roundup
Issued by NWS Green Bay, WI

Home | Current Version | Previous Version | Graphics & Text | Print | Product List | Glossary Off
Versions: 1 2 3 4 5 6 7 8 9 10 11 12 13 14 15 16 17 18 19 20 21 22 23 24 25 26 27 28 29 30 31 32 33 34 35 36 37 38 39 40 41 42 43 44 45 46 47 48 49 50

044
ASUS43 KGRB 201111
RWRGRB

NORTH-CENTRAL AND NORTHEAST WISCONSIN REGIONAL WEATHER ROUNDUP
NATIONAL WEATHER SERVICE GREEN BAY WI
500 AM CST TUE FEB 20 2018

WIZ005-009-010>012-018-019-201200-
NORTH CENTRAL WISCONSIN

CITY           SKY/WX    TMP DP  RH WIND       PRES   REMARKS
IRONWOOD       CLOUDY    17  15  92 CALM      29.83S FOG
MANITOWISH WTR CLOUDY    19  19 100 NE5       29.78R
ARBOR VITAE    CLOUDY    22  20  93 CALM      29.78R
EAGLE RIVER    CLOUDY    21  21 100 E3        29.77R
LAND O LAKES   CLOUDY    21  20  96 E3        29.79R FOG
RHINELANDER    CLOUDY    22  21  96 E5        29.79R
PHILLIPS       CLOUDY    19  19 100 E5        29.75F
ANTIGO         MIX PCPN  24  24 100 E5        29.79R
TOMAHAWK       CLOUDY    21  20  96 CALM      29.78S FOG
MERRILL        LGT SNOW  24  24 100 NE3       29.79R
$$

WIZ013-073-201200-
NORTHEAST WISCONSIN

CITY           SKY/WX    TMP DP  RH WIND       PRES   REMARKS
IRON MOUNTAIN  CLOUDY    24  21  88 NE5       29.79S FOG
MARINETTE      CLOUDY    29  27  92 NE13      29.81S FOG
OCONTO         CLOUDY    30  29  98 NE6       29.80R
$$

WIZ017-030-035>037-045-201200-
CENTRAL WISCONSIN

CITY           SKY/WX    TMP DP  RH WIND       PRES   REMARKS
MEDFORD        MIX PCPN  23  22  95 E9        29.75F
WAUSAU         FRZ RAIN  26  26 100 CALM      29.78R FOG
MOSINEE        MIX PCPN  28  28 100 CALM      29.83R
MARSHFIELD     FRZ RAIN  28  27  96 E14       29.73F FOG
WISC RAPIDS    FRZ RAIN  28  26  92 S3        29.84R FOG
STEVENS POINT  MIX PCPN  26  26 100 CALM      29.82R
WAUPACA        MIX PCPN  30  28  93 CALM      29.81R
SHAWANO        CLOUDY    30  28  93 NE3       29.81R FOG
CLINTONVILLE   CLOUDY    29  28  95 N3        29.80R FOG
WAUTOMA        LGT SNOW  29  29 100 N6        29.83R FOG
$$

WIZ038-039-048-051-201200-
FOX VALLEY

CITY           SKY/WX    TMP DP  RH WIND       PRES   REMARKS
NWS GREEN BAY  CLOUDY    30  28  92 NE17      29.78F FOG
APPLETON       FOG       30  30 100 CALM      29.76R VSB 1/2
OSHKOSH        FOG       30  30 100 N6        29.77F VSB 1/4
FOND DU LAC    FRZ RAIN  31  29  92 NE6       29.77S VSB 1/2
$$

WIZ022-050-052-201200-
EAST CENTRAL WISCONSIN

CITY           SKY/WX    TMP DP  RH WIND       PRES   REMARKS
EPHRAIM        FOG       31  31  99 NE7       29.76F VSB 1
WASHINGTON ISL MIX PCPN  30  29  98 NE10G17   29.78F
STURGEON BAY   MIX PCPN  32  32 100 N6        29.78F VSB 1/2
MANITOWOC      MIX PCPN  32  31  96 NW5       29.77F VSB 3/4
SHEBOYGAN      CLOUDY    34  34 100 CALM      29.78R FOG
$$

LMZ563-521-522-541>543-201200-
LAKESHORE

STATION/POSITION TIME  TEMP    WIND        PRES    VSBY  WAVE
                       AIR SEA DIR/SP/G                  HT/PER
                 (UTC) (F)     (DEG/KT/KT) (MB)    (MI)  (FT/S)
SHEBOYGAN LKSHOR 1100   33     340/  7/  8 1009.0R
KEWAUNEE LKSHORE 1048   33     310/  3/  4 1007.6F
NORTHPORT PIER   1040   31                 1008.8F
SISTER BAY LKSHO 1020   31      30/  8/ 10   N/A
MENOMINEE LKSHOR 1048   27      10/ 19/ 23 1008.5F
$$




USA.gov is the U.S. government's official web portal to all federal, state and local government web resources and services.